This is the latest recevied weather packets stored in our database for station/object W4NDF-13. If no packets are shown the sender has not sent any weather packets the latest 10 day(s).
| Time | Temp. | Humidity | Pressure | Rain* | Wind** | Luminosity | Snow |
|---|---|---|---|---|---|---|---|
| 1777665651 | 18.33° C | 99% | 1011.8 hPa | 71.37 mm | - | 36 W/m² | - |
| 1777665348 | 18.89° C | 99% | 1011.8 hPa | 71.37 mm | - | 37 W/m² | - |
| 1777665043 | 18.89° C | 99% | 1012.3 hPa | 44.45 mm | - | 28 W/m² | - |
| 1777664739 | 18.89° C | 99% | 1011.8 hPa | 18.54 mm | - | 11 W/m² | - |
| 1777664435 | 18.89° C | 99% | 1011.3 hPa | 8.89 mm | - | 10 W/m² | - |
| 1777664133 | 18.89° C | 99% | 1011.2 hPa | 13.72 mm | - | 13 W/m² | - |
| 1777663831 | 19.44° C | 99% | 1010.9 hPa | 11.94 mm | - | 8 W/m² | - |
| 1777663528 | 19.44° C | 98% | 1011.1 hPa | 1.78 mm | - | 15 W/m² | - |
| 1777663226 | 19.44° C | 98% | 1011.2 hPa | 0 mm | - | 9 W/m² | - |
| 1777662922 | 19.44° C | 98% | 1010.9 hPa | 0 mm | - | 31 W/m² | - |
| 1777662620 | 18.89° C | 98% | 1011 hPa | 0 mm | - | 56 W/m² | - |
| 1777662315 | 19.44° C | 99% | 1010.6 hPa | 0 mm | - | 65 W/m² | - |
| 1777662011 | 19.44° C | 99% | 1010.8 hPa | 0 mm | - | 54 W/m² | - |
| 1777661707 | 19.44° C | 99% | 1010.7 hPa | 0 mm | - | 63 W/m² | - |
| 1777661403 | 19.44° C | 99% | 1010.6 hPa | 0 mm | - | 103 W/m² | - |
| 1777661099 | 19.44° C | 99% | 1010.8 hPa | 0 mm | - | 115 W/m² | - |
| 1777660794 | 19.44° C | 99% | 1010.6 hPa | 0 mm | - | 95 W/m² | - |
| 1777660492 | 19.44° C | 99% | 1010.9 hPa | 0 mm | - | 101 W/m² | - |
| 1777660188 | 19.44° C | 98% | 1010.7 hPa | 3.05 mm | - | 180 W/m² | - |
| 1777659885 | 19.44° C | 98% | 1011.1 hPa | 3.56 mm | - | 71 W/m² | - |
| 1777659581 | 19.44° C | 98% | 1011.5 hPa | 1.27 mm | - | 38 W/m² | - |
| 1777659279 | 19.44° C | 97% | 1011.7 hPa | 1.78 mm | - | 34 W/m² | - |
| 1777658976 | 19.44° C | 97% | 1011.4 hPa | 0 mm | - | 40 W/m² | - |
| 1777658673 | 19.44° C | 96% | 1011.6 hPa | 0 mm | - | 41 W/m² | - |
| 1777658369 | 20° C | 96% | 1011.7 hPa | 0 mm | - | 52 W/m² | - |
* Rain latest hour (hover to see other rain measurements)
** Current wind speed in m/s (hover to see current wind gust speed)